Location: Richmond
(37.5536°N, 77.4606°W)
Time: 17:16:05
(UTC-04:00)

ISS - Visible Passes

Search period start: 30 July 2014 00:00
Search period end: 09 August 2014 00:00
Orbit: 411 x 419 km, 51.6° (Epoch: 30 July)

Date Brightness Start Highest point End Pass type
(mag) Time Alt. Az. Time Alt. Az. Time Alt. Az.
30 Jul 0.0 04:35:39 10° N 04:37:18 13° NNE 04:38:56 10° NE visible
31 Jul 0.3 03:47:54 10° N 03:48:10 10° NNE 03:48:26 10° NNE visible
31 Jul -1.5 05:22:33 10° NW 05:25:41 35° NNE 05:28:48 10° ESE visible
01 Aug -0.7 04:33:57 10° NNW 04:36:43 23° NNE 04:39:28 10° E visible
01 Aug -1.5 21:15:39 10° S 21:17:03 16° SSE 21:17:03 16° SSE visible
02 Aug -0.2 03:45:28 10° NNW 03:47:41 16° NNE 03:49:54 10° ENE visible
02 Aug -3.4 05:21:23 10° NW 05:24:45 80° SW 05:28:06 10° SE visible
02 Aug -3.3 22:02:07 10° SW 22:05:26 81° NW 22:08:00 16° NE visible
02 Aug 0.1 23:40:40 10° WNW 23:41:08 12° NW 23:41:08 12° NW visible
03 Aug 0.2 02:57:07 10° N 02:58:34 12° NNE 03:00:01 10° NE visible
03 Aug -2.5 04:32:35 10° NW 04:35:54 55° NE 04:39:11 10° ESE visible
03 Aug -3.2 21:13:23 10° SSW 21:16:37 52° SE 21:19:52 10° ENE visible
03 Aug -0.5 22:50:59 10° WNW 22:53:31 20° NNW 22:56:04 10° NNE visible
04 Aug -1.5 03:46:03 27° N 03:46:58 32° NNE 03:50:01 10° E visible
04 Aug -2.2 05:20:47 10° WNW 05:23:34 24° SW 05:26:21 10° S visible
04 Aug -1.2 22:01:32 10° W 22:04:30 29° NNW 22:07:30 10° NNE visible
05 Aug -1.2 04:37:07 17° SSE 04:37:07 17° SSE 04:38:02 10° SSE visible
05 Aug -2.3 21:12:19 10° WSW 21:15:33 49° NW 21:18:48 10° NE visible
05 Aug 0.1 22:51:41 10° NW 22:52:54 12° NNW 22:54:08 10° N visible
06 Aug -0.2 22:01:42 10° WNW 22:03:46 15° NNW 22:05:50 10° NNE visible
07 Aug -0.6 21:12:02 10° W 21:14:40 21° NNW 21:17:19 10° NNE visible
